Location: Firdgum
(53.2488°N, 5.5615°E)
Time: 02:30:21
(UTC+00:00)

Cosmos 2266 Rocket - Pass Details

Date: 08 December 2019
Orbit: 933 x 1009 km, 82.9° (Epoch: 22 January)

Event Time Altitude Azimuth Distance (km) Brightness Sun altitude
Rises 06:45:10 0° 346° (NNW) 3,716 6.6 -7.5°
Reaches altitude 10° 06:47:47 10° 342° (NNW) 2,753 5.9 -7.1°
Maximum altitude 06:53:49 51° 269° (W) 1,213 4.2 -6.3°
Drops below altitude 10° 06:59:43 10° 196° (SSW) 2,684 6.5 -5.6°
Sets 07:02:15 0° 191° (S) 3,616 7.3 -5.3°
